Stations météo

Publicité
Saint-Brieuc, France (7120): Température de l'air & dewpoint: 13.02.2020 09:00:00 - 19.02.2020 09:00:00 (CET)Saint-Brieuc, France (7120): Température de l'air 5cm: 13.02.2020 09:00:00 - 19.02.2020 09:00:00 (CET)Saint-Brieuc, France (7120): Température de l'air -20cm & Température de l'air -100cm: 13.02.2020 09:00:00 - 19.02.2020 09:00:00 (CET)Saint-Brieuc, France (7120): Vitesse du vent & gusts: 13.02.2020 09:00:00 - 19.02.2020 09:00:00 (CET)Saint-Brieuc, France (7120): Direction du vent: 13.02.2020 09:00:00 - 19.02.2020 09:00:00 (CET)Saint-Brieuc, France (7120): reduced air pressure: 13.02.2020 09:00:00 - 19.02.2020 09:00:00 (CET)Saint-Brieuc, France (7120): visibility: 13.02.2020 09:00:00 - 19.02.2020 09:00:00 (CET)Saint-Brieuc, France (7120): Ensoleillement: 13.02.2020 09:00:00 - 19.02.2020 09:00:00 (CET)Saint-Brieuc, France (7120): Quantités de précipitations: 13.02.2020 09:00:00 - 19.02.2020 09:00:00 (CET)
Date & Time tt [°C] td [°C] tt 5cm [°C] tt -20cm [°C] tt -100cm [°C] ff [km/h] ff [knt] fx [km/h] fx [knt] dd ppp [hPa] vv [km] sd [min] rr [mm]
19.02.2020 09:00:00 - - - - - - - - - - - - - -
19.02.2020 08:00:00 6,3 4,6 4,8 7,9 9,3 11 6 20 11 SW 1027,4 16 0 0,0
19.02.2020 07:00:00 6,1 4,6 4,3 7,9 9,3 10 5 15 8 WSW 1027,1 14 0 0,0
19.02.2020 06:00:00 6,4 4,6 4,4 8,0 9,3 9 5 14 8 SW 1027,0 14 0 0,0
19.02.2020 05:00:00 6,4 4,2 4,7 8,0 9,4 10 5 22 12 W 1026,4 16 0 0,0
19.02.2020 04:00:00 7,0 5,3 5,9 8,0 9,4 14 8 22 12 WNW 1026,4 17 0 0,0
19.02.2020 03:00:00 6,5 5,3 5,4 8,1 9,5 14 7 44 24 NW 1026,2 15 0 0,2
19.02.2020 02:00:00 7,2 5,3 5,5 8,1 9,6 32 17 53 29 WNW 1026,2 11 0 0,8
19.02.2020 01:00:00 7,6 4,5 6,2 8,1 9,7 37 20 68 37 WNW 1025,4 7 0 0,4
19.02.2020 00:00:00 8,9 5,5 7,7 8,1 9,6 36 19 58 31 W 1024,3 20 0 0,0
18.02.2020 23:00:00 8,5 5,8 7,3 8,1 9,3 35 19 60 32 W 1024,4 20 0 0,0
18.02.2020 22:00:00 8,3 5,4 7,5 8,2 9,3 32 17 48 26 W 1024,7 20 0 0,0
18.02.2020 21:00:00 8,3 5,6 7,0 8,2 9,4 32 17 46 25 W 1025,1 20 0 0,0
18.02.2020 20:00:00 8,1 5,0 7,1 8,2 9,5 21 12 40 21 WSW 1025,6 20 0 0,0
18.02.2020 19:00:00 8,5 5,6 7,4 8,1 9,7 20 11 49 26 WSW 1025,8 20 1 0,0
18.02.2020 18:00:00 9,6 4,8 9,0 8,1 9,5 22 12 39 21 WSW 1025,6 20 31 0,0
18.02.2020 17:00:00 9,9 5,5 9,6 8,0 9,6 18 10 53 29 WSW 1025,8 20 34 0,0
18.02.2020 16:00:00 10,1 5,3 7,7 7,9 9,7 24 13 56 30 WSW 1026,1 20 20 0,0
18.02.2020 15:00:00 10,5 4,0 10,3 7,8 9,8 29 16 50 27 WSW 1026,9 20 22 0,0
18.02.2020 14:00:00 10,5 2,8 9,6 7,6 9,9 29 16 46 25 WSW 1027,4 20 42 0,0
18.02.2020 13:00:00 9,9 4,5 9,8 7,5 9,9 27 15 50 27 WSW 1028,0 20 51 0,0
18.02.2020 12:00:00 9,9 5,1 8,7 7,5 10,1 25 13 43 23 WSW 1027,9 20 49 0,0
18.02.2020 11:00:00 8,9 5,5 7,8 7,5 10,1 19 11 34 19 WSW 1028,2 20 55 0,0
18.02.2020 10:00:00 7,1 4,2 5,7 7,5 10,1 20 11 31 17 WSW 1028,6 20 60 0,0
18.02.2020 09:00:00 5,6 3,6 3,9 7,6 10,2 15 8 26 14 WSW 1028,4 20 21 0,0
18.02.2020 08:00:00 5,0 3,0 3,8 7,6 10,2 14 8 29 16 WSW 1027,8 20 0 0,0
18.02.2020 07:00:00 5,0 2,7 3,8 7,7 10,2 14 7 30 16 WSW 1027,3 20 0 0,0
18.02.2020 06:00:00 5,0 2,7 3,8 7,8 10,2 14 8 30 16 SW 1027,2 20 0 0,0
18.02.2020 05:00:00 5,0 2,9 3,3 7,8 10,2 16 9 26 14 WSW 1027,2 20 0 0,0
18.02.2020 04:00:00 4,7 2,6 3,5 7,9 10,3 14 8 32 17 WSW 1027,4 20 0 0,0
18.02.2020 03:00:00 4,6 2,3 3,5 8,0 10,3 11 6 31 17 SW 1027,5 20 0 0,0
18.02.2020 02:00:00 5,1 2,4 3,6 8,1 10,4 16 9 28 15 WSW 1027,3 20 0 0,0
18.02.2020 01:00:00 5,1 1,9 3,1 8,2 10,4 14 8 31 17 SW 1027,1 20 0 0,0
18.02.2020 00:00:00 4,6 2,0 3,0 8,3 10,4 11 6 30 16 SW 1026,8 20 0 0,0
17.02.2020 23:00:00 5,1 1,6 4,0 8,4 10,5 23 13 38 21 WSW 1026,3 20 0 0,0
17.02.2020 22:00:00 5,2 2,5 4,0 8,5 10,5 19 11 30 16 WSW 1025,7 20 0 0,0
17.02.2020 21:00:00 5,3 2,5 4,0 8,6 11,4 19 11 28 15 WSW 1025,2 20 0 0,2
17.02.2020 20:00:00 5,6 2,6 3,9 8,7 11,5 16 9 34 18 WSW 1024,0 20 0 0,0
17.02.2020 19:00:00 6,3 2,6 4,7 8,7 11,5 25 14 47 25 WSW 1022,9 20 1 0,0
17.02.2020 18:00:00 6,4 2,7 5,0 8,7 11,5 25 14 54 29 W 1021,9 20 31 0,4
17.02.2020 17:00:00 7,8 4,4 4,9 8,7 11,5 22 12 66 36 W 1020,8 20 48 1,0
17.02.2020 16:00:00 7,9 3,2 4,9 8,6 11,1 19 11 61 33 WSW 1020,1 20 29 0,4
17.02.2020 15:00:00 9,1 3,3 7,0 8,5 11,4 24 13 58 31 WSW 1019,3 20 26 0,0
17.02.2020 14:00:00 10,7 3,7 9,9 8,5 - 33 18 59 32 W 1018,8 20 43 0,0
17.02.2020 13:00:00 10,7 3,9 10,9 8,4 - 32 17 61 33 W 1018,3 20 56 0,0
17.02.2020 12:00:00 9,3 4,5 9,8 8,4 - 35 19 53 29 WSW 1017,6 19 60 0,0
17.02.2020 11:00:00 7,8 4,0 6,7 8,5 - 24 13 47 26 WSW 1017,3 20 58 0,0
17.02.2020 10:00:00 6,1 3,1 5,2 8,5 - 21 11 59 32 WSW 1016,7 20 24 0,8
17.02.2020 09:00:00 6,8 4,3 5,7 8,7 - 18 10 42 23 WSW 1016,0 20 18 0,0
17.02.2020 08:00:00 5,9 3,4 5,1 8,7 17,4 19 11 32 17 SW 1014,7 20 0 0,0
17.02.2020 07:00:00 5,6 3,3 4,9 8,9 17,2 16 8 39 21 SW 1014,3 20 0 0,0
17.02.2020 06:00:00 6,5 3,1 5,4 9,0 17,6 31 17 50 27 WSW 1014,1 20 0 0,0
17.02.2020 05:00:00 6,2 3,5 5,2 9,1 17,2 16 9 47 25 WSW 1013,9 20 0 0,0
17.02.2020 04:00:00 6,1 3,8 5,2 9,1 17,2 14 8 34 19 SW 1014,3 18 0 0,0
17.02.2020 03:00:00 6,9 3,7 6,2 9,3 17,3 14 8 27 14 SSW 1014,2 18 0 0,0
17.02.2020 02:00:00 7,1 4,1 6,4 9,4 17,2 13 7 26 14 SW 1014,2 17 0 0,0
17.02.2020 01:00:00 7,2 4,3 7,4 9,5 17,1 15 8 28 15 SSW 1014,2 16 0 0,0
17.02.2020 00:00:00 7,2 4,5 7,4 9,6 16,9 16 9 35 19 SW 1013,8 17 0 0,0
16.02.2020 23:00:00 7,2 4,7 7,2 9,8 16,2 18 10 33 18 SW 1013,0 18 0 0,0
16.02.2020 22:00:00 7,0 4,5 7,1 9,9 16,1 16 9 37 20 SW 1012,1 20 0 0,0
16.02.2020 21:00:00 7,2 4,3 7,4 10,0 15,9 17 9 45 24 SW 1011,1 20 0 0,0
16.02.2020 20:00:00 7,8 4,0 8,2 10,1 16,0 18 10 56 31 WSW 1010,3 20 0 0,0
16.02.2020 19:00:00 8,6 5,5 10,0 10,2 16,0 29 16 51 27 WSW 1008,7 20 0 0,4
16.02.2020 18:00:00 8,5 5,9 10,0 10,3 16,0 25 14 56 30 WSW 1007,0 14 0 0,2
16.02.2020 17:00:00 9,2 6,3 11,0 10,3 15,9 34 18 49 26 WSW 1006,5 19 0 0,0
16.02.2020 16:00:00 8,6 7,2 7,9 10,4 15,7 29 16 50 27 W 1005,4 19 0 0,8
16.02.2020 15:00:00 8,1 6,7 7,9 10,3 15,3 42 23 94 51 WNW 1003,8 3,7 0 3,5
16.02.2020 14:00:00 14,4 12,3 13,2 10,2 9,0 42 23 85 46 SW 999,6 4,6 0 0,6
16.02.2020 13:00:00 14,3 12,0 13,2 10,1 9,0 43 23 89 48 SW 999,9 8 0 0,2
16.02.2020 12:00:00 14,6 12,1 13,2 10,0 9,0 43 23 86 46 SW 1000,5 10 0 0,0
16.02.2020 11:00:00 14,4 12,1 13,1 9,9 9,0 43 23 87 47 SW 1000,6 8 0 0,2
16.02.2020 10:00:00 14,2 12,2 12,8 9,9 9,0 40 22 79 42 SW 1001,2 4,3 0 0,2
16.02.2020 09:00:00 13,9 11,9 12,6 9,9 9,0 39 21 81 44 SW 1001,6 7 0 0,4
16.02.2020 08:00:00 14,0 11,9 12,5 9,8 9,0 37 20 74 40 SW 1001,6 12 0 0,4
16.02.2020 07:00:00 13,7 11,7 12,4 9,8 9,0 40 22 84 45 SW 1001,9 4,6 0 0,4
16.02.2020 06:00:00 13,6 11,6 12,3 9,7 9,0 40 21 76 41 SW 1002,1 9 0 0,3
16.02.2020 05:00:00 13,5 11,5 12,1 9,7 9,0 37 20 86 46 SW 1002,3 8 0 0,8
16.02.2020 04:00:00 13,2 11,4 12,0 9,6 9,0 39 21 73 39 SW 1003,1 6 0 1,2
16.02.2020 03:00:00 13,1 11,2 11,9 9,6 9,0 35 19 72 39 SW 1004,1 4,7 0 1,2
16.02.2020 02:00:00 13,1 11,3 12,0 9,5 9,0 35 19 67 36 SW 1004,7 12 0 0,4
16.02.2020 01:00:00 13,1 11,3 11,8 9,5 9,0 34 18 67 36 SW 1005,4 11 0 0,8
16.02.2020 00:00:00 12,9 11,0 11,8 9,4 8,9 32 17 67 36 SW 1006,2 15 0 1,0
15.02.2020 23:00:00 12,9 11,1 11,7 9,4 9,0 31 17 84 45 SSW 1006,5 8 0 0,4
15.02.2020 22:00:00 12,8 11,0 11,6 9,4 9,0 33 18 67 36 SW 1006,9 7 0 0,0
15.02.2020 21:00:00 12,6 10,8 11,4 9,4 9,0 32 18 67 36 SW 1007,4 12 0 0,2
15.02.2020 20:00:00 12,5 10,7 11,1 9,3 9,0 35 19 75 41 SW 1007,7 8 0 0,0
15.02.2020 19:00:00 12,4 10,5 11,1 9,3 9,0 37 20 73 40 SW 1007,3 9 0 0,2
15.02.2020 18:00:00 12,5 10,0 11,0 9,2 9,0 41 22 87 47 SW 1007,3 14 0 0,2
15.02.2020 17:00:00 12,2 10,1 11,0 9,2 8,9 42 23 82 44 SW 1008,2 8 0 1,0
15.02.2020 16:00:00 12,4 9,8 11,1 9,1 8,9 42 23 70 38 SW 1008,9 19 0 0,2
15.02.2020 15:00:00 12,5 10,0 11,4 9,0 9,0 35 19 88 47 SW 1009,5 13 0 0,2
15.02.2020 14:00:00 12,4 10,1 11,4 9,0 9,0 30 16 64 35 SSW 1010,5 17 0 0,0
15.02.2020 13:00:00 13,0 9,4 11,3 8,9 8,9 33 18 68 37 SSW 1011,9 20 0 0,0
15.02.2020 12:00:00 12,5 9,7 11,0 8,9 9,0 26 14 63 34 SSW 1012,7 20 0 0,0
15.02.2020 11:00:00 12,1 9,7 10,8 8,8 9,0 23 12 64 34 SSW 1013,5 15 0 0,0
15.02.2020 10:00:00 11,8 9,7 10,6 8,8 8,9 24 13 49 26 SSW 1014,5 20 0 0,4
15.02.2020 09:00:00 11,4 10,0 10,6 8,8 8,9 21 11 50 27 SSW 1014,7 6 0 0,0
15.02.2020 08:00:00 12,1 9,5 10,9 8,8 9,0 20 11 47 26 SSW 1015,1 19 0 0,0
15.02.2020 07:00:00 12,0 9,4 11,3 8,7 9,0 19 10 40 21 SSW 1015,4 20 0 0,0
15.02.2020 06:00:00 11,8 9,4 11,1 8,7 9,0 20 11 40 22 SSW 1016,0 20 0 0,0
15.02.2020 05:00:00 11,9 9,3 11,2 8,7 8,9 20 11 41 22 SSW 1016,9 20 0 0,0
15.02.2020 04:00:00 12,1 9,8 10,9 8,7 9,0 20 11 39 21 SSW 1017,2 20 0 0,0
15.02.2020 03:00:00 12,0 10,1 11,3 8,6 9,0 17 9 35 19 SW 1018,2 20 0 0,0
15.02.2020 02:00:00 11,7 9,9 11,1 8,6 9,0 18 10 40 22 SSW 1018,2 20 0 0,0
15.02.2020 01:00:00 11,7 9,6 10,8 8,6 9,0 17 9 35 19 SW 1018,7 20 0 0,0
15.02.2020 00:00:00 11,6 9,7 10,6 8,5 8,9 18 10 33 18 SSW 1019,1 20 0 0,0
14.02.2020 23:00:00 11,5 9,9 10,5 8,5 8,9 17 9 40 21 SW 1019,8 16 0 0,0
14.02.2020 22:00:00 11,5 9,7 10,6 8,4 8,9 18 10 40 22 SSW 1019,9 20 0 0,0
14.02.2020 21:00:00 11,5 9,6 10,9 8,4 8,9 18 10 36 20 SW 1020,5 15 0 0,0
14.02.2020 20:00:00 11,3 9,4 10,5 8,4 8,9 18 10 39 21 SW 1020,4 20 0 0,0
14.02.2020 19:00:00 11,2 8,8 10,6 8,3 8,9 18 10 38 20 SSW 1020,3 20 0 0,0
14.02.2020 18:00:00 11,8 7,9 11,4 8,2 9,0 18 10 47 26 SSW 1020,4 20 9 0,0
14.02.2020 17:00:00 12,0 6,9 11,7 8,1 9,0 18 10 46 25 SW 1020,6 19 0 0,0
14.02.2020 16:00:00 12,3 6,3 12,3 8,0 8,9 26 14 51 28 SW 1020,6 17 4 0,0
14.02.2020 15:00:00 12,0 6,9 12,5 7,8 8,9 21 12 40 21 SSW 1020,3 18 2 0,0
14.02.2020 14:00:00 12,3 6,8 13,5 7,7 8,9 19 10 45 25 SW 1020,6 17 57 0,0
14.02.2020 13:00:00 12,0 6,5 12,5 7,6 9,0 21 12 49 26 SW 1021,1 18 60 0,0
14.02.2020 12:00:00 10,7 6,4 11,3 7,5 8,9 29 16 53 29 SW 1021,5 15 58 0,0
14.02.2020 11:00:00 9,9 6,2 9,1 7,5 8,9 19 10 39 21 SW 1021,7 12 53 0,0
14.02.2020 10:00:00 8,9 6,0 6,9 7,5 8,9 14 7 36 20 SSW 1021,6 12 41 0,0
14.02.2020 09:00:00 7,6 5,2 5,3 7,6 9,0 17 9 32 17 SW 1021,2 12 0 0,0
14.02.2020 08:00:00 6,7 5,3 4,7 7,7 9,0 10 6 19 10 SW 1021,1 12 0 0,0
14.02.2020 07:00:00 6,6 5,4 5,0 7,7 9,0 7 4 20 11 SSW 1021,0 11 0 0,0
14.02.2020 06:00:00 6,9 5,4 5,3 7,8 9,0 11 6 22 12 SW 1020,4 14 0 0,0
14.02.2020 05:00:00 6,9 5,2 5,2 7,8 8,9 11 6 21 11 SW 1019,7 16 0 0,0
14.02.2020 04:00:00 7,1 5,1 5,6 7,9 9,0 14 8 24 13 WSW 1019,4 15 0 0,0
14.02.2020 03:00:00 7,9 5,2 6,5 7,9 9,0 16 9 25 13 WSW 1019,5 17 0 0,0
14.02.2020 02:00:00 8,1 5,2 7,0 7,9 9,0 18 10 29 16 W 1018,7 17 0 0,0
14.02.2020 01:00:00 8,5 5,8 7,5 8,0 9,0 19 10 35 19 W 1017,7 16 0 0,0
14.02.2020 00:00:00 9,1 5,3 8,5 7,9 9,0 23 12 46 25 W 1017,3 19 0 0,0
13.02.2020 23:00:00 9,2 5,6 8,5 8,0 9,0 27 14 45 25 W 1016,8 18 0 0,0
13.02.2020 22:00:00 9,2 5,2 8,5 8,0 9,0 25 14 48 26 W 1015,5 20 0 0,0
13.02.2020 21:00:00 9,3 5,3 7,8 8,0 9,0 26 14 42 23 WNW 1014,1 18 0 0,0
13.02.2020 20:00:00 9,1 5,8 7,5 8,0 9,0 27 14 51 28 W 1012,5 18 0 0,0
13.02.2020 19:00:00 8,7 6,5 7,5 7,9 9,0 35 19 63 34 W 1011,0 8 0 0,2
13.02.2020 18:00:00 8,6 6,9 7,8 7,9 9,0 30 16 63 34 WNW 1009,2 8 1 0,2
13.02.2020 17:00:00 9,8 6,3 8,3 7,8 9,0 42 23 74 40 W 1007,2 14 5 0,0
13.02.2020 16:00:00 10,3 6,3 9,1 7,8 9,0 44 24 78 42 W 1005,5 16 4 0,0
13.02.2020 15:00:00 9,8 7,0 8,6 7,7 9,0 50 27 90 49 W 1004,1 11 7 0,0
13.02.2020 14:00:00 9,4 7,2 7,9 7,6 9,0 40 22 77 42 W 1002,7 14 0 2,8
13.02.2020 13:00:00 9,1 6,5 7,6 7,6 9,0 48 26 78 42 WSW 1001,7 7 5 0,6
13.02.2020 12:00:00 8,9 5,8 7,7 7,5 9,0 45 24 88 48 WSW 1001,6 4,6 17 0,2
13.02.2020 11:00:00 9,6 4,6 6,7 7,5 9,0 42 23 80 43 WSW 1001,3 14 5 0,8
13.02.2020 10:00:00 9,1 4,1 6,8 7,5 9,0 35 19 70 38 WSW 1001,1 12 29 0,0
13.02.2020 09:00:00 8,5 3,5 7,1 7,6 9,0 35 19 59 32 WSW 1001,5 12 8 0,0

tt = Température de l'air
td = dewpoint
tt 5cm = Température de l'air 5cm
tt -20cm = Température de l'air -20cm
tt -100cm = Température de l'air -100cm
ff = Vitesse du vent
fx = gusts
dd = Direction du vent
ppp = reduced air pressure
vv = visibility
sd = Ensoleillement
rr = Quantités de précipitations

stations d'obs. à proximité